Location: Comstock Ranch
(38.0499°N, 120.2627°W)
Time: 21:30:59
(UTC+00:00)

SL-16 R/B - Pass Details

Date: 08 September 2024
Orbit: 985 x 1006 km, 99.7° (Epoch: 12 October)

Event Time Altitude Azimuth Distance (km) Brightness Sun altitude
Exits shadow 12:28:57 17° 274° (W) 2,314 3.9 -13.9°
Drops below altitude 10° 12:32:16 10° 306° (NW) 2,769 4.5 -13.3°
Sets 12:35:49 0° 327° (NNW) 3,727 5.4 -12.7°
